{"data":{"norad_id":64114,"intl_designator":"2025-110U","name":"STARLINK-34064","alt_names":[],"object_type":"PAYLOAD","status":"ACTIVE","operator":null,"country":"US","launch_date":"2025-05-23","launch_site_code":"AFWTR","launch_vehicle":null,"mission":null,"orbit_class":"UNKNOWN","rcs_meters":null,"size_class":null,"mass_kg":null,"dimensions":null,"purposes":["comms"],"wikipedia_slug":null,"has_3d_model":false,"image_url":null,"decayed_at":null,"tle_current":{"epoch":"2026-09-20T05:11:42.166464Z","epoch_age_seconds":164983,"freshness":"FRESH","line1":"1 64114U 25110U   26263.21646026  .00022876  00000+0  74553-3 0  9992","line2":"2 64114  53.1578 201.9169 0000706  84.6883 275.4199 15.31748419 75681","mean_motion":15.31748419,"eccentricity":7.06e-5,"inclination_deg":53.1578,"raan_deg":201.9169,"arg_perigee_deg":84.6883,"mean_anomaly_deg":275.4199,"bstar":0.00074553,"rev_number":7568,"period_min":94.010216177674,"perigee_km":470.11214398211,"apogee_km":471.07918503434,"semimajor_km":6848.7326645082,"source":"CELESTRAK","updated_at":"2026-09-21T09:00:35.230271Z"}}}